Weather History for Buffalo, WY

Change the Weather History Date:

Thursday, July 4, 2013

  Actual Average Record
Temperature  
Mean Temperature 74 °F 68 °F  
Max Temperature 86 °F 82 °F 97 °F (2002)
Min Temperature 61 °F 55 °F 48 °F (2005)
Degree Days  
Heating Degree Days 0 1  
Month to date heating degree days 0 7  
Since 1 June heating degree days 100 170  
Since 1 July heating degree days 0 7  
Cooling Degree Days 9 5  
Month to date cooling degree days 35 18  
Year to date cooling degree days 122 76  
Since 1 June cooling degree days 112 69  
Growing Degree Days 22 (Base 50)    
Moisture  
Dew Point 55 °F    
Average Humidity 60    
Maximum Humidity 90    
Minimum Humidity 30    
Precipitation  
Precipitation T in 0.06 in 0.36 in (2009)
Month to date precipitation T 0.21  
Year to date precipitation 4.08 8.01  
Sea Level Pressure  
Sea Level Pressure 29.86 in    
Wind  
Wind Speed 8 mph (WNW)    
Max Wind Speed 26 mph    
Max Gust Speed 41 mph    
Visibility 10 miles    
Events Rain , Thunderstorm    
T = Trace of Precipitation, MM = Missing Value Source: NWS Daily Summary

Daily Weather History Graph

Daily Weather History Graph

Search for Another Location

Airport:

Trip Planner

Search our weather history database for the weather conditions in past years. The results will help you decide how hot, cold, wet, or windy it might be!

Date:

Astronomy

Jul. 04, 2013 Rise Set
Actual Time 5:28 AM MDT 8:54 PM MDT
Civil Twilight 4:52 AM MDT 9:30 PM MDT
Nautical Twilight 4:04 AM MDT 10:17 PM MDT
Astronomical Twilight 3:04 AM MDT 11:17 PM MDT
Moon 2:50 AM MDT (7/4) 5:58 PM MDT (7/4)
Length of Visible Light 16h 38m
Length of Day
15h 25m
Waning Crescent, 11% of the Moon is Illuminated
Jul 4
Waning Crescent
Jul 8
New
Jul 15
First Quarter
Jul 22
Full
Jul 29
Last Quarter

Hourly Weather History & Observations

Time (MDT) Temp. Heat Index Dew Point Humidity Pressure Visibility Wind Dir Wind Speed Gust Speed Precip Events Conditions
12:53 AM 69.1 °F - 46.0 °F 44% 29.79 in 10.0 mi West 5.8 mph - N/A   Clear
1:53 AM 70.0 °F - 45.0 °F 41% 29.78 in 10.0 mi West 8.1 mph - N/A   Clear
2:53 AM 70.0 °F - 44.1 °F 39% 29.76 in 10.0 mi WSW 9.2 mph - N/A   Clear
3:53 AM 68.0 °F - 39.0 °F 35% 29.75 in 10.0 mi WSW 6.9 mph - N/A   Clear
4:53 AM 68.0 °F - 36.0 °F 31% 29.77 in 10.0 mi WNW 5.8 mph - N/A   Clear
5:53 AM 69.1 °F - 45.0 °F 42% 29.79 in 10.0 mi NNW 9.2 mph - N/A   Clear
6:53 AM 70.0 °F - 50.0 °F 49% 29.81 in 10.0 mi North 11.5 mph - N/A   Clear
7:53 AM 72.0 °F - 57.0 °F 59% 29.85 in 10.0 mi North 16.1 mph 26.5 mph N/A   Clear
8:14 AM 71.6 °F - 60.8 °F 69% 30.06 in 10.0 mi NNW 12.7 mph 24.2 mph N/A   Mostly Cloudy
8:53 AM 75.0 °F - 62.1 °F 64% 29.86 in 10.0 mi North 11.5 mph - N/A   Overcast
9:53 AM 75.9 °F - 61.0 °F 60% 29.86 in 10.0 mi North 10.4 mph - N/A   Mostly Cloudy
10:53 AM 81.0 °F 81.3 °F 59.0 °F 47% 29.84 in 10.0 mi North 9.2 mph - N/A   Mostly Cloudy
11:53 AM 82.9 °F 82.4 °F 57.0 °F 41% 29.82 in 10.0 mi Variable 4.6 mph - N/A Thunderstorm Partly Cloudy
12:53 PM 78.1 °F - 57.9 °F 50% 29.83 in 10.0 mi WSW 4.6 mph - 0.00 in Rain , Thunderstorm Light Rain
1:34 PM 71.6 °F - 62.6 °F 73% 30.03 in 3.0 mi West 8.1 mph - 0.00 in Rain Light Rain
1:53 PM 73.9 °F - 64.0 °F 71% 29.84 in 10.0 mi WSW 8.1 mph - N/A Rain Light Rain
2:53 PM 78.1 °F - 61.0 °F 56% 29.81 in 10.0 mi WNW 4.6 mph - N/A   Clear
3:53 PM 82.0 °F - 48.9 °F 31% 29.79 in 10.0 mi SSE 3.5 mph - N/A   Partly Cloudy
4:53 PM 84.9 °F 83.2 °F 53.1 °F 33% 29.75 in 10.0 mi Calm Calm - N/A   Clear
5:53 PM 82.0 °F - 52.0 °F 35% 29.74 in 10.0 mi SW 11.5 mph - N/A   Mostly Cloudy
6:51 PM 78.8 °F - 57.2 °F 47% 29.94 in 10.0 mi WNW 9.2 mph - N/A Rain , Thunderstorm Light Rain
6:53 PM 78.1 °F - 57.0 °F 48% 29.75 in 10.0 mi WNW 9.2 mph - N/A Rain , Thunderstorm Light Rain
7:06 PM 73.4 °F - 57.2 °F 57% 29.94 in 10.0 mi SSE 15.0 mph 20.7 mph N/A Rain Light Rain
7:14 PM 75.2 °F - 57.2 °F 53% 29.94 in 10.0 mi ESE 9.2 mph - N/A Thunderstorm Overcast
7:53 PM 64.0 °F - 57.0 °F 78% 29.85 in 9.0 mi North 20.7 mph 27.6 mph N/A Rain , Thunderstorm Light Thunderstorms and Rain
8:53 PM 62.1 °F - 57.0 °F 84% 29.88 in 9.0 mi North 5.8 mph - N/A Rain , Thunderstorm Light Rain
9:01 PM 62.6 °F - 55.4 °F 77% 30.03 in 10.0 mi North 6.9 mph - N/A Rain Light Rain
9:08 PM 62.6 °F - 55.4 °F 77% 30.03 in 8.0 mi North 5.8 mph - N/A Rain , Thunderstorm Light Rain
9:23 PM 62.6 °F - 57.2 °F 82% 30.04 in 10.0 mi Variable 3.5 mph - N/A Rain Light Rain
9:53 PM 64.0 °F - 57.0 °F 78% 29.88 in 10.0 mi SW 3.5 mph - N/A Rain Light Rain
10:53 PM 61.0 °F - 57.9 °F 90% 29.93 in 5.0 mi Calm Calm - N/A Rain Rain
11:53 PM 61.0 °F - 57.9 °F 90% 29.91 in 9.0 mi SW 6.9 mph - N/A Rain Light Rain